timestamp,surface_pressure_avg,surface_temp_avg,battery_voltage,lat,long
2018-12-20 00:00:00+00:00,291.6764,2.8,12.97,47.84626,-54.09684
2018-12-20 00:10:00+00:00,285.1247,2.8,12.89,47.84626,-54.09684
2018-12-20 00:20:00+00:00,270.5764,2.8,12.97,47.84626,-54.09684
2018-12-20 00:30:00+00:00,265.5615,2.8,13.05,47.84626,-54.09684
2018-12-20 00:40:00+00:00,260.8948,2.8,13.05,47.84626,-54.09684
2018-12-20 00:50:00+00:00,250.5531,2.8,13.05,47.84626,-54.09684
2018-12-20 01:00:00+00:00,246.0648,2.79,12.97,47.84626,-54.09684
2018-12-20 01:10:00+00:00,244.9431,2.8,12.89,47.84626,-54.09684
2018-12-20 01:20:00+00:00,235.3864,2.8,12.97,47.84626,-54.09684
2018-12-20 01:30:00+00:00,230.3381,2.8,12.97,47.84626,-54.09684
2018-12-20 01:40:00+00:00,231.8481,2.8,13.05,47.84626,-54.09684
2018-12-20 01:50:00+00:00,223.9265,2.8,13.05,47.84626,-54.09684
2018-12-20 02:00:00+00:00,213.1265,2.8,12.97,47.84626,-54.09684
2018-12-20 02:10:00+00:00,213.4998,2.8,12.89,47.84626,-54.09684
2018-12-20 02:20:00+00:00,213.3931,2.8,12.97,47.84626,-54.09684
2018-12-20 02:30:00+00:00,207.7231,2.89,12.97,47.84626,-54.09684
2018-12-20 02:40:00+00:00,206.3048,2.9,12.97,47.84626,-54.09684
2018-12-20 02:50:00+00:00,209.2431,2.91,13.05,47.84626,-54.09684
2018-12-20 03:00:00+00:00,213.2131,2.94,12.97,47.84626,-54.09684
2018-12-20 03:10:00+00:00,215.3148,2.9,12.89,47.84626,-54.09684
2018-12-20 03:20:00+00:00,220.4064,2.9,12.97,47.84626,-54.09684
2018-12-20 03:30:00+00:00,225.8998,2.9,12.97,47.84626,-54.09684
2018-12-20 03:40:00+00:00,225.5181,2.85,12.97,47.84626,-54.09684
2018-12-20 03:50:00+00:00,224.5432,2.82,12.97,47.84626,-54.09684
2018-12-20 04:00:00+00:00,227.4015,2.82,12.89,47.84626,-54.09684
2018-12-20 04:10:00+00:00,238.2914,2.8,12.81,47.84626,-54.09684
2018-12-20 04:20:00+00:00,243.1598,2.8,12.97,47.84626,-54.09684
2018-12-20 04:30:00+00:00,241.7598,2.8,12.97,47.84626,-54.09684
2018-12-20 04:40:00+00:00,244.1264,2.87,12.97,47.84626,-54.09684
2018-12-20 04:50:00+00:00,252.3531,2.82,12.97,47.84626,-54.09684
2018-12-20 05:00:00+00:00,256.9597,2.85,12.89,47.84626,-54.09684
2018-12-20 05:10:00+00:00,257.118,2.88,12.81,47.84626,-54.09684
2018-12-20 05:20:00+00:00,261.5214,2.89,12.97,47.84626,-54.09684
2018-12-20 05:30:00+00:00,266.9931,2.9,12.97,47.84626,-54.09684
2018-12-20 05:40:00+00:00,266.1414,2.9,12.97,47.84626,-54.09684
2018-12-20 05:50:00+00:00,268.903,2.95,12.97,47.84626,-54.09684
2018-12-20 06:00:00+00:00,277.5914,2.96,12.89,47.84626,-54.09684
2018-12-20 06:10:00+00:00,282.7314,2.9,12.81,47.84626,-54.09684
2018-12-20 06:20:00+00:00,287.6547,2.9,12.97,47.84626,-54.09684
2018-12-20 06:30:00+00:00,298.9763,2.9,12.97,47.84626,-54.09684
2018-12-20 06:40:00+00:00,307.1664,2.91,12.97,47.84626,-54.09684
2018-12-20 06:50:00+00:00,309.548,2.9,12.97,47.84626,-54.09684
2018-12-20 07:00:00+00:00,317.3679,2.9,12.89,47.84626,-54.09684
2018-12-20 07:10:00+00:00,329.1497,2.9,12.81,47.84626,-54.09684
2018-12-20 07:20:00+00:00,332.8513,2.9,12.89,47.84626,-54.09684
2018-12-20 07:30:00+00:00,334.7463,2.9,12.97,47.84626,-54.09684
2018-12-20 07:40:00+00:00,343.6446,2.9,12.97,47.84626,-54.09684
2018-12-20 07:50:00+00:00,350.0563,2.9,12.97,47.84626,-54.09684
2018-12-20 08:00:00+00:00,348.2812,2.9,12.89,47.84626,-54.09684
2018-12-20 08:10:00+00:00,351.0679,2.9,12.81,47.84626,-54.09684
2018-12-20 08:20:00+00:00,356.8896,2.9,12.89,47.84626,-54.09684
2018-12-20 08:30:00+00:00,360.2463,2.86,12.89,47.84626,-54.09684
2018-12-20 08:40:00+00:00,360.3279,2.81,12.97,47.84626,-54.09684
2018-12-20 08:50:00+00:00,363.8046,2.81,12.97,47.84626,-54.09684
2018-12-20 09:00:00+00:00,366.6912,2.81,12.89,47.84626,-54.09684
2018-12-20 09:10:00+00:00,365.5979,2.8,12.81,47.84626,-54.09684
2018-12-20 09:20:00+00:00,364.7145,2.8,12.89,47.84626,-54.09684
2018-12-20 09:30:00+00:00,370.1313,2.8,12.89,47.84626,-54.09684
2018-12-20 09:40:00+00:00,372.0046,2.8,12.97,47.84626,-54.09684
2018-12-20 09:50:00+00:00,369.9629,2.8,12.97,47.84626,-54.09684
2018-12-20 10:00:00+00:00,370.5163,2.8,12.89,47.84626,-54.09684
2018-12-20 10:10:00+00:00,372.5079,2.8,12.81,47.84626,-54.09684
2018-12-20 10:20:00+00:00,367.903,2.8,12.89,47.84626,-54.09684
2018-12-20 10:30:00+00:00,364.2162,2.79,12.89,47.84626,-54.09684
2018-12-20 10:40:00+00:00,370.973,2.77,12.97,47.84626,-54.09684
2018-12-20 10:50:00+00:00,368.4263,2.74,12.97,47.84626,-54.09684
2018-12-20 11:00:00+00:00,357.8563,2.74,12.89,47.84626,-54.09684
2018-12-20 11:10:00+00:00,357.783,2.76,12.81,47.84626,-54.09684
2018-12-20 11:20:00+00:00,360.1796,2.76,12.89,47.84626,-54.09684
2018-12-20 11:30:00+00:00,355.0729,2.77,12.97,47.84626,-54.09684
2018-12-20 11:40:00+00:00,344.7263,2.78,13.21,47.84626,-54.09684
2018-12-20 11:50:00+00:00,340.0829,2.79,13.6,47.84626,-54.09684
2018-12-20 12:00:00+00:00,331.4496,2.8,14.0,47.84626,-54.09684
2018-12-20 12:10:00+00:00,320.0663,2.8,14.48,47.84626,-54.09684
2018-12-20 12:20:00+00:00,311.8264,2.8,16.15,47.84626,-54.09684
2018-12-20 12:30:00+00:00,305.4947,2.8,16.47,47.84626,-54.09684
2018-12-20 12:40:00+00:00,297.0013,2.79,16.55,47.84626,-54.09684
2018-12-20 12:50:00+00:00,286.6747,2.77,16.47,47.84626,-54.09684
2018-12-20 13:00:00+00:00,278.8931,2.75,15.11,47.84626,-54.09684
2018-12-20 13:10:00+00:00,274.7264,2.7,15.11,47.84626,-54.09684
2018-12-20 13:20:00+00:00,267.7464,2.7,15.2,47.84626,-54.09684
2018-12-20 13:30:00+00:00,259.0731,2.7,15.11,47.84626,-54.09684
2018-12-20 13:40:00+00:00,255.5914,2.71,15.11,47.84626,-54.09684
2018-12-20 13:50:00+00:00,249.4897,2.72,15.11,47.84626,-54.09684
2018-12-20 14:00:00+00:00,242.9231,2.7,14.96,47.84626,-54.09684
2018-12-20 14:10:00+00:00,237.6047,2.7,14.88,47.84626,-54.09684
2018-12-20 14:20:00+00:00,234.8514,2.71,14.96,47.84626,-54.09684
2018-12-20 14:30:00+00:00,233.1397,2.72,14.88,47.84626,-54.09684
2018-12-20 14:40:00+00:00,230.8014,2.7,14.8,47.84626,-54.09684
2018-12-20 14:50:00+00:00,230.4998,2.71,14.88,47.84626,-54.09684
2018-12-20 15:00:00+00:00,230.9164,2.74,14.64,47.84626,-54.09684
2018-12-20 15:10:00+00:00,229.8814,2.77,14.88,47.84626,-54.09684
2018-12-20 15:20:00+00:00,224.4731,2.79,15.11,47.84626,-54.09684
2018-12-20 15:30:00+00:00,221.9898,2.8,15.04,47.84626,-54.09684
2018-12-20 15:40:00+00:00,224.5148,2.8,14.96,47.84626,-54.09684
2018-12-20 15:50:00+00:00,222.9415,2.8,14.96,47.84626,-54.09684
2018-12-20 16:00:00+00:00,220.6064,2.8,14.88,47.84626,-54.09684
2018-12-20 16:10:00+00:00,223.3314,2.8,14.88,47.84626,-54.09684
2018-12-20 16:20:00+00:00,226.1348,2.8,14.96,47.84626,-54.09684
2018-12-20 16:30:00+00:00,225.4998,2.8,14.88,47.84626,-54.09684
2018-12-20 16:40:00+00:00,228.8131,2.8,14.88,47.84626,-54.09684
2018-12-20 16:50:00+00:00,233.7564,2.8,14.88,47.84626,-54.09684
2018-12-20 17:00:00+00:00,235.3181,2.8,14.8,47.84626,-54.09684
2018-12-20 17:10:00+00:00,237.2914,2.8,14.72,47.84626,-54.09684
2018-12-20 17:20:00+00:00,239.9081,2.8,14.8,47.84626,-54.09684
2018-12-20 17:30:00+00:00,243.7181,2.8,14.8,47.84626,-54.09684
2018-12-20 17:40:00+00:00,246.4114,2.8,14.8,47.84626,-54.09684
2018-12-20 17:50:00+00:00,248.8231,2.8,14.72,47.84626,-54.09684
2018-12-20 18:00:00+00:00,250.2364,2.81,14.64,47.84626,-54.09684
2018-12-20 18:10:00+00:00,253.8748,2.85,14.64,47.84626,-54.09684
2018-12-20 18:20:00+00:00,256.5148,2.88,14.64,47.84626,-54.09684
2018-12-20 18:30:00+00:00,259.5831,2.89,14.64,47.84626,-54.09684
2018-12-20 18:40:00+00:00,266.6747,2.88,14.64,47.84626,-54.09684
2018-12-20 18:50:00+00:00,277.0347,2.87,14.56,47.84626,-54.09684
2018-12-20 19:00:00+00:00,283.3564,2.88,14.32,47.84626,-54.09684
2018-12-20 19:10:00+00:00,289.0897,2.9,14.08,47.84626,-54.09684
2018-12-20 19:20:00+00:00,295.9813,2.9,14.0,47.84626,-54.09684
2018-12-20 19:30:00+00:00,303.863,2.89,13.92,47.84626,-54.09684
2018-12-20 19:40:00+00:00,310.198,2.87,13.92,47.84626,-54.09684
2018-12-20 19:50:00+00:00,317.158,2.88,13.84,47.84626,-54.09684
2018-12-20 20:00:00+00:00,326.373,2.88,13.68,47.84626,-54.09684
2018-12-20 20:10:00+00:00,330.1113,2.89,13.53,47.84626,-54.09684
2018-12-20 20:20:00+00:00,333.3413,2.9,13.53,47.84626,-54.09684
2018-12-20 20:30:00+00:00,339.258,2.9,13.44,47.84626,-54.09684
2018-12-20 20:40:00+00:00,344.858,2.9,13.44,47.84626,-54.09684
2018-12-20 20:50:00+00:00,348.1764,2.9,13.37,47.84626,-54.09684
2018-12-20 21:00:00+00:00,351.7562,2.9,13.29,47.84626,-54.09684
2018-12-20 21:10:00+00:00,357.5629,2.9,13.21,47.84626,-54.09684
2018-12-20 21:20:00+00:00,357.7163,2.9,13.21,47.84626,-54.09684
2018-12-20 21:30:00+00:00,354.848,2.9,13.21,47.84626,-54.09684
2018-12-20 21:40:00+00:00,355.7329,2.9,13.21,47.84626,-54.09684
2018-12-20 21:50:00+00:00,360.4846,2.89,13.13,47.84626,-54.09684
2018-12-20 22:00:00+00:00,363.2529,2.85,13.05,47.84626,-54.09684
2018-12-20 22:10:00+00:00,365.028,2.8,12.97,47.84626,-54.09684
2018-12-20 22:20:00+00:00,369.8129,2.8,13.05,47.84626,-54.09684
2018-12-20 22:30:00+00:00,370.2929,2.8,13.05,47.84626,-54.09684
2018-12-20 22:40:00+00:00,369.8362,2.8,13.05,47.84626,-54.09684
2018-12-20 22:50:00+00:00,370.3796,2.85,13.05,47.84626,-54.09684
2018-12-20 23:00:00+00:00,364.4429,2.83,12.97,47.84626,-54.09684
2018-12-20 23:10:00+00:00,357.0047,2.86,12.89,47.84626,-54.09684
2018-12-20 23:20:00+00:00,352.4813,2.88,12.97,47.84626,-54.09684
2018-12-20 23:30:00+00:00,345.3163,2.87,13.05,47.84626,-54.09684
2018-12-20 23:40:00+00:00,334.3696,2.85,13.05,47.84626,-54.09684
2018-12-20 23:50:00+00:00,329.0463,2.84,13.05,47.84626,-54.09684
